Regional Weather Roundup
Issued by NWS

Home | Current Version | Previous Version | Text Only | Print | Product List | Glossary Off
Versions: 1 2 3 4 5 6 7 8 9 10 11 12 13 14 15 16 17 18 19 20 21 22 23 24 25 26 27 28 29 30 31 32 33 34 35 36 37 38 39 40 41 42 43 44 45 46 47 48 49 50

000
ASUS43 KDTX 061510
RWRMI
MICHIGAN HOURLY REGIONAL WEATHER ROUNDUP
NATIONAL WEATHER SERVICE DETROIT/PONTIAC MI
1100 AM EDT MON JUL 06 2015

NOTE: "FAIR" INDICATES FEW OR NO CLOUDS BELOW 12,000 FEET WITH NO
SIGNIFICANT WEATHER AND/OR OBSTRUCTION TO VISIBILITY.

MIZ047>049-052>055-059>063-066>070-074>076-081>083-061600-
SOUTHEAST LOWER MICHIGAN

CITY           SKY/WX    TMP DP  RH WIND       PRES   REMARKS
ADRIAN         SUNNY     75  64  68 VRB3      30.07F
ALMA           MOSUNNY   76  65  69 S7        30.03F
ANN ARBOR      SUNNY     76  63  64 CALM      30.06F
BAD AXE        SUNNY     77  60  55 SW7       30.06F
CARO           SUNNY     77  64  63 SW6       30.05F
DETROIT CITY   SUNNY     78  60  53 W7        30.07R
DETROIT        MOSUNNY   77  62  59 S5        30.08S
FLINT          SUNNY     79  63  57 SW9       30.06F
GROSSE ILE     SUNNY     73  68  83 S5        30.07R
HILLSDALE      SUNNY     77  63  61 SW6       30.07F
HOWELL         SUNNY     77  62  59 SW5       30.07S

CITY           SKY/WX    TMP DP  RH WIND       PRES   REMARKS
JACKSON        SUNNY     77  63  61 W8        30.06F
LAMBERTVILLE   SUNNY     78  62  57 W5        30.08S
LANSING        MOSUNNY   76  64  66 S7        30.05F
LAPEER         FAIR      78  58  49 SW5       30.07F
MASON          SUNNY     74  62  65 SW3       30.06F
MONROE         SUNNY     76  64  67 W3        30.07S
MT. CLEMENS    SUNNY     75  67  76 E6        30.06R
PONTIAC        MOSUNNY   76  61  59 CALM      30.06F
PORT HOPE        N/A     77  60  55 VRB7      30.03F
PORT HURON     SUNNY     75  64  69 NW6       30.08R
TRI CITIES     MOSUNNY   78  63  59 S8        30.04F
MIDLAND        FAIR      77  62  60 S7        30.02F
TROY           SUNNY     77  62  59 SW5       30.09S
SAGINAW HB     MOSUNNY   77  61  57 SW7       30.04F
$$
MIZ043>046-050>051-056>058-064>065-071>073-077>080-061600-
SOUTHWEST LOWER MICHIGAN

CITY           SKY/WX    TMP DP  RH WIND       PRES   REMARKS
BATTLE CREEK   SUNNY     78  67  68 S8        30.04F
BENTON HARBOR  MOSUNNY   79  68  69 S7        30.00F
BIG RAPIDS     MOSUNNY   74  64  69 S6        29.99F
COLDWATER      SUNNY     75  65  69 SW7       30.05F
FREMONT        FAIR      77  65  67 S8        29.98F
HOLLAND        MOSUNNY   79  68  69 S12       30.00F
GRAND RAPIDS   PTSUNNY   77  66  68 S12       30.01F
IONIA          FAIR      77  64  64 SW7       30.02F
KALAMAZOO      SUNNY     77  66  68 S12       30.03F
LUDINGTON      PTSUNNY   78  67  67 SW15      29.97R
MARSHALL       SUNNY     76  65  68 SW7       30.04F
MOUNT PLEASANT MOSUNNY   76  63  63 S8        30.00F
MUSKEGON       PTSUNNY   76  65  68 S14       29.99S
SOUTH HAVEN    MOSUNNY   78  67  68 S7        30.00F
$$
MIZ016>042-061600-
NORTHERN LOWER MICHIGAN

CITY           SKY/WX    TMP DP  RH WIND       PRES   REMARKS
ALPENA         PTSUNNY   79  62  56 S12       29.99F
BEAVER ISLAND  CLOUDY    75  62  64 S10G18    29.92S
BELLAIRE       PTSUNNY   78  63  59 S7        29.94F
CADILLAC       MOSUNNY   75  64  68 S9        29.98F
CHARLEVOIX     PTSUNNY   77  63  62 S8        29.96F
FRANKFORT      PTSUNNY   80  60  51 S12G18    29.94R
GAYLORD        PTSUNNY   76  63  64 SW14      29.98F
GRAYLING       PTSUNNY   76  63  63 S9        29.99F
HARBOR SPRINGS PTSUNNY   76  64  66 S6        29.93F
HOUGHTON LAKE  MOSUNNY   75  63  66 S6        30.00F
MANISTEE       PTSUNNY   75  64  69 SW6       29.96S
OSCODA         MOSUNNY   77  61  57 S9        30.01F
PELLSTON       PTSUNNY   77  63  61 S7        29.94F
ROGERS CITY    PTSUNNY   77  66  68 S8        29.98F
TRAVERSE CITY  CLOUDY    80  65  59 S10       29.92F
$$
MIZ007>008-015-061600-
EASTERN UPPER MICHIGAN

CITY           SKY/WX    TMP DP  RH WIND       PRES   REMARKS
KINROSS        CLOUDY    73  64  73 S10G17    29.93F
MACKINAC ISLAN PTSUNNY   74  63  67 S8        29.93S
NEWBERRY       CLOUDY    69  63  81 S10G17    29.90S
S. S. MARIE    CLOUDY    74  63  68 S9        29.91F
MUNISING         N/A     75  66  73 SW9       29.86S
$$
MIZ004>006-011>014-085-061600-
CENTRAL UPPER MICHIGAN

CITY           SKY/WX    TMP DP  RH WIND       PRES   REMARKS
MANISTIQUE     CLOUDY    62  57  85 S12       29.90R HAZE
ESCANABA       CLOUDY    72  64  78 S10       29.87S
MENOMINEE      CLOUDY    73  64  73 SW12      29.86F
SAWYER-GWINN   CLOUDY    70  64  83 S7        29.89R
$$
MIZ001>003-009>011-084-061600-
WESTERN UPPER MICHIGAN

CITY           SKY/WX    TMP DP  RH WIND       PRES   REMARKS
IRON MOUNTAIN  CLOUDY    70  65  84 S6        29.87R HAZE
HOUGHTON       RAIN      61  59  93 NE6       29.84R FOG
COPPER HARBOR    N/A     57  55  93 CALM      29.84F
IRONWOOD       CLOUDY    66  66 100 N6        29.81S
$$

ABBREVIATIONS USED IN REMARKS
   TC - TEMPERATURE IN CELSIUS
  WCI - WIND CHILL INDEX
   HX - HEAT INDEX
  VSB - VISIBILITY




USA.gov is the U.S. government's official web portal to all federal, state and local government web resources and services.